Tracking 17925 objects as of 23-January-2017
HD Live streaming from Space Station
objects crossing your sky now

MINOTAUR R/B

Track MINOTAUR R/B now!
10-day predictions


NORAD ID: 26066
Int'l Code: 2000-004F
Perigee: 750.1 km
Apogee: 797.2 km
Inclination: 100.2 °
Period: 100.2 minutes
Semi major axis: 7144 km
RCS: 1.5369 m2 (large)
Launch date: January 27, 2000
Source: United States (US)
Launch site: AIR FORCE WESTERN TEST RANGE (AFWTR)

Note: This is a ROCKET BODY
Your satellite tracking list
Your tracking list is empty





NASA's NSSDC Master Catalog

Two Line Element Set (TLE):
1 26066U 00004F   17022.95171198 -.00000022 +00000-0 +12553-4 0  9992
2 26066 100.2267 011.9889 0032964 336.0270 048.2428 14.37574766890994
Source of the keplerian elements: AFSPC